Location: Vallejo Observatory
(38.1221°N, 122.2109°W)
Time: 03:34:35
(UTC-07:00)

Daily predictions for brighter satellites

Satellite Brightness Start Highest point End
(mag) Time Altitude Azimuth Time Altitude Azimuth Time Altitude Azimuth
Sich 1 3.8 00:07:15 45° NE 00:07:15 45° NE 00:10:23 10° NNE
CZ-4C R/B 3.2 00:08:02 32° E 00:08:02 32° E 00:11:46 10° NE
CZ-4C R/B 4.1 00:07:59 52° NW 00:07:59 52° NW 00:11:33 10° NNW
Cosmos 1869 4.5 00:05:00 10° N 00:07:41 39° NNE 00:07:41 39° NNE
Cosmos 1891 Rocket 4.4 00:03:23 10° N 00:09:27 68° E 00:10:01 64° ESE
Cosmos 841 Rocket 4.0 00:05:05 10° NNW 00:10:07 48° WSW 00:10:09 48° WSW
Spot 4 4.5 00:10:43 46° W 00:10:43 46° W 00:15:20 10° NNW
Cosmos 1707 Rocket 4.0 00:10:07 10° N 00:13:50 61° N 00:13:50 61° N
Cosmos 1455 3.9 00:20:29 10° NNW 00:22:56 29° NW 00:22:56 29° NW
Cosmos 1666 Rocket 4.2 00:28:56 55° NNW 00:28:56 55° NNW 00:32:37 10° N
Cosmos 1464 Rocket 3.9 00:22:46 10° NNW 00:28:54 69° W 00:29:33 64° SW
Cosmos 304 Rocket 4.3 00:24:32 10° NNW 00:28:31 51° WNW 00:28:31 51° WNW
Cosmos 1844 Rocket 3.0 00:39:30 55° ENE 00:39:30 55° ENE 00:44:18 10° NNE
Cosmos 1633 Rocket 4.1 00:47:58 42° NW 00:47:58 42° NW 00:51:18 10° N
Lacrosse 5 3.9 00:46:08 10° WNW 00:47:59 18° W 00:47:59 18° W
In-Cosmos 22 Rocket 4.3 00:50:35 64° ENE 00:50:35 64° ENE 00:55:42 10° NNE
CZ-2C R/B 3.3 00:50:10 69° WSW 00:50:12 70° WSW 00:55:57 10° NNW
Tsikada Rocket 4.0 00:53:01 67° SW 00:53:42 74° W 01:00:05 10° N
Cosmos 967 Rocket 4.3 00:48:33 10° NNW 00:54:58 86° WSW 00:55:20 80° S
Cosmos 2242 Rocket 4.5 00:58:48 10° NNW 01:02:16 47° NW 01:02:16 47° NW
Cosmos 968 Rocket 4.1 01:13:50 48° WNW 01:13:53 48° WNW 01:18:59 10° N
CZ-2C R/B 3.6 01:13:34 10° N 01:18:21 35° WNW 01:18:52 34° W
H-2A R/B 4.1 01:17:21 10° NNE 01:20:19 30° ENE 01:20:19 30° ENE
Cosmos 2278 Rocket 2.5 01:27:04 57° E 01:27:04 57° E 01:32:11 10° NNE
Cosmos 489 Rocket 4.4 01:27:10 75° SW 01:27:41 82° WNW 01:34:04 10° NNE
Meteor 1-26 Rocket 4.1 01:24:15 10° N 01:29:32 79° NW 01:29:32 79° NW
Cosmos 1844 3.8 01:31:39 65° WNW 01:31:47 65° WNW 01:37:22 10° NNE
Cosmos 1538 Rocket 4.3 01:29:15 10° NNW 01:33:57 62° WNW 01:33:57 62° WNW
Okean 1-7 4.1 01:31:42 10° N 01:35:02 40° NE 01:35:02 40° NE
CZ-4B R/B 3.7 01:39:08 25° N 01:39:08 25° N 01:40:44 10° N
SL-24 R/B - RUBIN 2 4.2 01:32:48 10° NNW 01:37:18 61° NW 01:37:18 61° NW
Cosmos 923 Rocket 4.2 01:38:03 10° NNW 01:43:14 63° ENE 01:43:14 63° ENE
COSMOS 2406 3.7 01:38:22 10° NNW 01:43:06 47° W 01:43:06 47° W
Landsat 5 4.4 01:49:33 45° NNW 01:49:33 45° NNW 01:52:30 10° NNW
Cosmos 2279 Rocket 3.8 01:46:34 10° N 01:52:52 89° W 01:53:29 75° S
Cosmos 1825 3.8 01:56:02 32° NE 01:56:02 32° NE 01:58:22 10° NNE
CZ-4C R/B 3.6 01:53:10 24° W 01:55:06 30° NW 02:00:20 10° NNE
PSLV R/B 4.2 01:56:31 10° NNE 02:00:08 54° NE 02:00:08 54° NE
Meteor 2-3 Rocket 4.3 02:01:29 46° W 02:01:50 47° WNW 02:07:25 10° N
Cosmos 2082 Rocket 3.5 01:56:50 10° N 02:01:58 35° ENE 02:04:46 22° ESE
Cosmos 1782 3.8 02:02:27 10° N 02:05:21 45° N 02:05:21 45° N
Cosmos 1408 4.2 02:08:32 33° NNE 02:08:32 33° NNE 02:10:38 10° N
Cosmos 44 4.0 02:10:25 42° E 02:10:25 42° E 02:13:55 10° NE
Cosmos 2112 Rocket 4.0 02:08:07 10° NNW 02:13:26 77° ENE 02:13:43 75° ESE
ATLAS 3B R/B 3.3 02:15:40 43° SSE 02:17:11 48° ESE 02:24:07 10° NE
Cosmos 44 Rocket 3.4 02:19:53 69° ENE 02:19:53 69° ENE 02:24:16 10° NE
Meteor 2-6 Rocket 4.0 02:17:28 10° N 02:23:03 85° W 02:23:31 75° SSW
Meteor 1-27 Rocket 4.1 02:18:18 10° N 02:24:13 64° E 02:25:43 48° SE
Helios 1A Rocket 3.5 02:20:18 10° NNE 02:23:43 54° NE 02:23:43 54° NE
Cosmos 1680 Rocket 3.5 02:21:00 10° NNW 02:26:01 68° W 02:26:01 68° W
Cosmos 1937 Rocket 3.8 02:30:03 52° ESE 02:30:24 53° ESE 02:35:26 10° NNE
Cosmos 1174 4.4 02:34:53 69° W 02:35:19 74° WNW 02:41:25 10° NNE
Aureole 1 Rocket 4.4 02:30:59 10° NNW 02:37:59 76° WSW 02:40:58 43° S
Resurs 1-4 Rocket 3.7 02:34:54 10° NE 02:39:14 25° E 02:41:09 20° SE
Cosmos 1898 Rocket 3.3 02:43:27 72° SW 02:43:55 80° WNW 02:49:11 10° NNE
Cosmos 990 Rocket 4.0 02:45:28 58° SE 02:46:05 64° ESE 02:51:13 10° NNE
SeaSat 1 2.5 02:45:36 47° SE 02:46:59 73° ENE 02:51:56 10° NNW
Cosmos 1606 4.4 02:44:03 10° NNW 02:46:08 25° NW 02:46:08 25° NW
Cosmos 1092 Rocket 3.9 02:46:12 55° SSW 02:47:43 82° W 02:54:01 10° N
Meteor 2-20 4.4 02:46:23 56° SSW 02:47:50 86° W 02:54:03 10° N
Cosmos 1340 3.1 02:49:44 10° N 02:52:51 59° N 02:52:51 59° N
Cosmos 1607 4.2 02:52:16 44° WSW 02:54:00 60° NW 03:00:13 10° NNE
CZ-2D R/B 3.3 02:50:10 10° NNE 02:55:05 35° E 02:57:14 26° SE
H-2A R/B 4.4 02:53:22 10° NNW 02:56:44 21° WNW 02:56:56 21° WNW
SL-08 R/B 3.5 02:57:17 47° SE 02:58:36 72° ENE 03:03:24 10° N
ARIANE 5 R/B 3.7 02:54:56 10° NNE 02:59:24 32° E 03:01:18 25° SE
Cosmos 2026 Rocket 4.0 02:58:14 43° SSE 03:00:18 74° E 03:06:21 10° N
CBERS-1 3.9 03:01:47 10° NNE 03:06:57 87° WNW 03:08:06 56° SSW
USA 238 DEB 3.7 03:06:09 42° SSW 03:08:42 77° ESE 03:15:42 10° NE
USA 238 3.7 03:06:15 42° SSW 03:08:48 76° ESE 03:15:48 10° NE
IRS-1D 4.2 03:04:49 10° NNE 03:09:42 46° E 03:11:33 32° SSE
Cosmos 2278 Rocket 4.0 03:08:54 16° W 03:11:07 20° NW 03:15:12 10° N
COSMOS 2487 3.3 03:08:34 10° NNW 03:11:07 43° NW 03:11:07 43° NW
Cosmos 1437 4.5 03:14:51 10° NNE 03:17:44 29° ENE 03:18:38 25° ESE
IRS-P3 4.3 03:12:55 10° N 03:18:11 59° WNW 03:19:36 44° SW
Cosmos 1943 Rocket 4.3 03:14:49 10° SE 03:18:29 18° E 03:22:09 10° ENE
GP-B 3.1 03:14:29 10° N 03:18:53 62° W 03:19:22 57° WSW
NPP 3.8 03:15:29 10° N 03:20:47 60° WNW 03:22:20 43° SW
Cosmos 2369 Rocket 3.3 03:18:13 23° SSE 03:20:54 36° ESE 03:25:59 10° NE
Cosmos 1833 Rocket 2.8 03:15:25 10° NNW 03:20:55 53° WSW 03:22:09 44° SSW
UNK 4.0 03:21:09 28° SSE 03:23:32 66° ENE 03:28:11 10° N
Cosmos 1812 3.4 03:23:24 10° N 03:27:09 50° E 03:28:43 30° SE
Cosmos 1655 Rocket 3.9 03:25:44 35° S 03:28:36 85° W 03:34:53 10° N
Cosmos 1975 Rocket 3.5 03:26:18 10° N 03:30:34 57° E 03:32:56 25° SSE
COSMOS 2455 4.5 03:27:29 14° SSE 03:31:20 26° ESE 03:36:10 10° NE
CBERS 1 LM4 rocket 4.3 03:30:03 10° NNE 03:35:02 84° ESE 03:36:56 38° S
CZ-3B DEB 4.0 03:22:40 10° NW 03:36:03 89° NE 03:46:50 10° SE
SL-16 R/B 2.5 03:31:45 21° SSE 03:36:10 87° WSW 03:42:28 10° NNW
Cosmos 1428 Rocket 4.4 03:35:27 32° SSW 03:38:28 79° W 03:44:43 10° N
Cosmos 2082 Rocket 3.0 03:41:05 10° NW 03:45:53 30° WSW 03:46:33 29° WSW
ASTRO E2 4.3 03:46:57 20° SSE 03:46:57 20° SSE 03:49:23 10° ESE
Meteor 1-25 Rocket 4.1 03:43:47 30° S 03:46:42 88° W 03:52:21 10° N
USA 267 3.4 03:40:16 10° NE 03:46:47 67° SE 03:50:31 27° SSW
Meteor 1-14 Rocket 4.4 03:45:30 32° SSW 03:48:19 65° W 03:54:18 10° N
NOSS 3-2 (C) 3.9 03:45:13 24° S 03:48:36 52° ESE 03:54:49 10° NE
NOSS 3-2 (A) 3.5 03:46:06 29° SSW 03:49:16 71° ESE 03:55:42 10° NE
ADEOS Rocket 3.8 03:47:24 10° N 03:54:45 53° WNW 03:58:58 24° SW
Okean 3 4.4 03:56:26 10° NNW 04:00:06 29° W 04:00:43 28° WSW
MOZ.5/SAFIR/RUBIN 5/SL-8 4.1 03:56:27 10° SSE 04:01:11 69° ENE 04:05:54 10° N
Cosmos 2266 Rocket 4.1 03:58:28 16° S 04:03:40 81° E 04:10:05 10° N
Cosmos 1633 2.6 04:03:18 28° S 04:05:06 79° E 04:08:45 10° N
ADEOS 3.7 04:01:41 10° N 04:06:49 58° WNW 04:09:49 24° SW
CENTAUR R/B 4.3 04:02:41 10° SSE 04:07:06 22° ESE 04:11:51 10° ENE
ATLAS 3B R/B 3.7 04:02:55 17° WSW 04:08:03 38° NW 04:14:41 10° NNE
Cosmos 1048 Rocket 4.2 04:02:52 10° NNW 04:08:16 75° ENE 04:13:37 10° SSE
Okean 1 3.2 04:05:47 10° N 04:09:52 86° W 04:12:59 16° S
S3M 4.1 04:04:12 10° NNW 04:10:15 58° W 04:14:58 17° SSW
GRACE-1 4.2 04:09:58 26° SSE 04:11:14 59° E 04:13:54 10° N
GRACE-2 4.2 04:10:22 26° SSE 04:11:40 59° E 04:14:20 10° N
Gbstr 26 Del rocket 3.2 04:10:14 27° SSW 04:11:51 46° SE 04:15:28 10° ENE
Resurs 1-4 Rocket 2.9 04:14:15 10° N 04:19:07 37° WNW 04:22:14 20° SW
Cosmos 2344 3.7 04:15:51 20° SW 04:21:35 79° NW 04:30:02 10° NNE
Okean 2 Rocket 3.7 04:20:13 23° SW 04:22:22 38° WNW 04:26:30 10° N
MOS 1 Rocket 3.6 04:17:25 10° N 04:22:45 65° WNW 04:26:38 18° SSW
SeaSat 1 4.3 04:25:22 13° W 04:25:22 13° W 04:27:05 10° WNW
BREEZE M DEB (TANK) 4.3 04:21:32 16° SSW 04:26:40 35° SSE 04:29:35 10° E
Centaur D-1AR AC-40 4.4 04:12:04 10° WSW 04:27:02 26° SSW 04:31:51 10° SE
Cosmos 1441 Rocket 3.4 04:24:48 10° N 04:28:49 77° E 04:32:47 10° SSE
Meteor 1-13 Rocket 4.3 04:27:30 10° N 04:33:03 81° E 04:38:38 10° S
CZ-2D R/B 3.3 04:30:28 10° N 04:34:59 28° WNW 04:38:34 14° WSW
CZ-2D R/B 3.9 04:30:48 10° N 04:35:05 52° WNW 04:38:30 16° SSW
Meteor 1-11 Rocket 3.9 04:29:50 10° S 04:35:30 82° E 04:41:21 10° N
Cosmos 1125 Rocket 4.2 04:32:17 17° SW 04:35:52 40° WNW 04:40:51 10° N
ARIANE 5 R/B 3.7 04:34:15 10° NNW 04:38:22 26° WNW 04:41:38 14° WSW
UNKNOWN OBJECT B 3.5 04:35:20 10° N 04:38:45 34° WNW 04:41:05 17° SW
Cosmos 1300 Rocket 3.6 04:36:30 10° S 04:40:55 82° E 04:45:23 10° N
PSLV R/B 3.1 04:45:44 16° WSW 04:48:17 78° SSE 04:51:36 10° ENE
Okean O Rocket 2.2 04:50:06 10° NNE 04:54:26 59° E 04:58:46 10° S
Cosmos 405 Rocket 4.0 04:54:07 10° NW 04:57:21 24° W 05:00:32 10° SW
Cosmos 1943 Rocket 2.4 04:56:11 10° SW 05:01:42 57° WNW 05:07:15 10° NNE
USA 161 2.1 05:00:09 11° SSW 05:02:04 25° W 05:04:13 10° NW
Cosmos 2369 Rocket 3.3 05:00:03 10° WSW 05:04:55 30° WNW 05:09:50 10° N
deb Kosmos-1763 4.3 05:04:42 10° NNW 05:08:22 51° WSW 05:12:00 10° S
Cosmos 1536 3.3 05:10:42 10° SSW 05:14:29 43° W 05:18:18 10° N
ADEOS II 2.2 05:09:30 10° N 05:14:45 70° WNW 05:19:58 10° SSW
COSMOS 2455 3.4 05:11:10 10° SW 05:16:56 47° WNW 05:22:44 10° NNE
BREEZE-M DEB (TANK) 4.5 05:15:29 10° WNW 05:18:39 32° N 05:27:00 10° ENE
Okean 2 4.0 05:15:45 10° N 05:19:54 65° E 05:24:03 10° SSE
SL-16 R/B 4.3 05:18:51 10° WSW 05:20:34 11° W 05:22:17 10° WNW
CZ-3B DEB 4.5 05:18:16 10° WNW 05:28:44 32° WSW 05:37:10 10° S
